Volver al catálogo

SL-8 DEB

ActivoLEO
NORAD 22842·DEBRIS·🇷🇺 Russia

Lanzado Feb 12, 1991 desde Plesetsk Cosmodrome

Loading…

Próximos Pases (próximas 24 horas)

TLE

ActualizadoSource: Space-Track

Época: Sep 14, 2026, 02:45 UTC

1 22842U 91009CM  26257.11508503  .00000127  00000-0  10820-2 0  9995
2 22842  73.8827 149.5080 0138379 156.7600 355.4841 12.36603206601161

Sigue SL-8 DEB en tiempo real con AllMySat

Download on the App Store